Погода в Малошуйке

Россия / Архангельская область     63°42′26″N   37°27′11″E
темп.,
°C
ветер,
м/с
пор.,
м/с
влажн.,
%
обл.,
%
осадки,
мм/ч
давл.,
гПа
погр.,
м
25 июля, вс
вс2500:00+11з246995 0.0 101192
03:00+8зюз33795 0.0 101247
06:00+12зюз3962100 0.0 1011283
09:00+12зюз3881100 0.3 1012261
12:00+14зсз2873100 0.3 1013557
15:00+16сз3665100 0.4 1013892
18:00+15с1276100 0.1 1014103
21:00+12сз24825 0.2 101594
26 июля, пн
пн2600:00+9юз229299 0.0 101632
03:00+12юз387592 0.0 1015182
06:00+12зюз3795100 1.0 1016200
09:00+14зсз368428 1.2 1016436
12:00+16сз586118 0.0 1018885
15:00+16ссз586129 0.0 1018728
18:00+14сз486593 0.0 1019380
21:00+11сз24794 0.0 102099
27 июля, вт
вт2700:00+8юз11875 0.0 102112
03:00+8з23855 0.0 102237
06:00+11зсз23733 0.0 102297
09:00+15ссз235295 0.0 1022522
12:00+16ссз2247100 0.0 1021691
15:00+18ссз244051 0.0 1020734
18:00+17с23475 0.0 1018284
21:00+14ююв11615 0.0 101611
28 июля, ср
ср2800:00+12ю226815 0.0 101623
03:00+12ююз227587 0.0 101442
06:00+16зюз4127570 0.6 1010343
09:00+20зсз397294 3.1 1009645
12:00+18сз486922 0.1 1009425
15:00+19ссз476125 0.1 1008521
18:00+16с47691 0.0 1008246
21:00+14св48741 0.0 1008242
29 июля, чт
чт2900:00+10всв22800 0.0 100928
03:00+8в23865 0.0 100842
06:00+10вюв348913 0.0 1008199
09:00+15вюв3466100 0.0 1007493
12:00+20вюв345019 0.0 1005884
15:00+23юв354777 0.0 10031435
18:00+22вюв586090 1.3 1000602
21:00+16вюв41093100 4.6 999239